Volver al catálogo

GEESAT 6-06

ActivoCienciaLEO
NORAD 65718·PAYLOAD·🇨🇳 China

Lanzado Sep 24, 2025 desde Yellow Sea Launch Area

Loading…

Próximos Pases (próximas 24 horas)

TLE

ActualizadoSource: Space-Track

Época: Sep 14, 2026, 08:43 UTC

1 65718U 25214G   26257.36369878  .00001030  00000-0  15331-3 0  9993
2 65718  49.9888 253.1202 0008450 215.6282 144.4093 14.82863243 52770

Sigue GEESAT 6-06 en tiempo real con AllMySat

Download on the App Store